Weather in Voskresenka

Russia / Samara Oblast     53°03′22″N   50°00′55″E
temp.,
°C
wind,
m/s
gust,
m/s
humid.,
%
clouds,
%
prec.,
mm/h
press.,
hPa
HPBL,
m
25 february, thu
thu2501:00−27nw22922 0.0 103619
04:00−28w239441 0.0 103620
07:00−28wsw229644 0.0 103519
10:00−23ssw249171 0.0 1034148
13:00−19s4788100 0.0 1031325
16:00−18s61196100 0.2 1028411
19:00−17s71395100 1.4 1025589
22:00−15s71295100 3.0 1022618
26 february, fri
fri2601:00−13s71294100 1.3 1018570
04:00−12sse61194100 2.1 1017480
07:00−12sse4995100 0.5 1015350
10:00−11sse4794100 0.8 1015351
13:00−9se4692100 0.2 1015423
16:00−8se4792100 0.3 1014445
19:00−9se5995100 0.2 1012332
22:00−8sse71394100 0.7 1008327
27 february, sat
sat2701:00−4s81395100 3.5 1003333
04:00+2wsw511100100 6.5 1000275
07:00+1w51198100 0.1 999443
10:00+1w5119780 0.2 1000550
13:00+1wsw51010097 0.0 1000535
16:00+1wsw499994 0.1 1000406
19:00−2sw479486 0.0 1000119
22:00−1sw489893 0.2 1000311
28 february, sun
sun2801:000sw4898100 0.4 1000363
04:00−2sw4897100 0.8 1000254
07:00−3sw3697100 0.3 1001187
10:00−2w3497100 0.9 1002271
13:00−3nw4597100 0.6 1004294
16:00−6nnw4594100 0.9 1006404
19:00−11nnw3694100 0.1 1008155
22:00−14nw359596 0.1 1011107
1 march, mon
mon101:00−14nnw389678 0.1 1013212
04:00−15nnw369584 0.1 1015155
07:00−16nnw479589 0.1 1017307
10:00−16nnw469169 0.1 1019327
13:00−13nnw468965 0.0 1020439
16:00−13nnw458978 0.0 1021476
19:00−18nw349684 0.0 102348
22:00−20wnw239642 0.0 102420